Time,TemperatureF,DewpointF,PressureIn,WindDirection,WindDirectionDegrees,WindSpeedMPH,WindSpeedGustMPH,Humidity,HourlyPrecipIn,Conditions,Clouds,dailyrainin,SoftwareType,DateUTC
2013-11-20 00:01:00,30.9,23.0,29.57,East,90,4.0,8.0,72,0.00,,,0.00,meteohub,2013-11-20 05:01:00,
2013-11-20 00:02:00,30.9,23.0,29.57,ESE,113,3.0,8.0,72,0.00,,,0.00,meteohub,2013-11-20 05:02:00,
2013-11-20 00:07:00,30.9,23.0,29.57,SE,135,4.0,8.0,72,0.00,,,0.00,meteohub,2013-11-20 05:07:00,
2013-11-20 00:12:00,30.9,23.0,29.57,ESE,113,4.0,6.0,72,0.00,,,0.00,meteohub,2013-11-20 05:12:00,
2013-11-20 00:17:00,30.9,23.4,29.57,SE,135,4.0,6.0,73,0.00,,,0.00,meteohub,2013-11-20 05:17:00,
2013-11-20 00:23:00,30.9,23.4,29.57,ESE,113,4.0,4.0,73,0.00,,,0.00,meteohub,2013-11-20 05:23:00,
2013-11-20 00:28:00,30.7,23.2,29.57,SE,135,4.0,4.0,73,0.00,,,0.00,meteohub,2013-11-20 05:28:00,
2013-11-20 00:33:00,30.7,23.2,29.57,ESE,113,3.0,5.0,73,0.00,,,0.00,meteohub,2013-11-20 05:33:00,
2013-11-20 00:38:00,30.7,23.2,29.57,ESE,113,4.0,5.0,73,0.00,,,0.00,meteohub,2013-11-20 05:38:00,
2013-11-20 00:43:00,30.6,23.0,29.57,ESE,113,4.0,5.0,73,0.00,,,0.00,meteohub,2013-11-20 05:43:00,
2013-11-20 00:48:00,30.6,23.0,29.57,SE,135,3.0,5.0,73,0.00,,,0.00,meteohub,2013-11-20 05:48:00,
2013-11-20 00:53:00,30.6,23.0,29.56,East,90,3.0,4.0,73,0.00,,,0.00,meteohub,2013-11-20 05:53:00,
2013-11-20 00:58:00,30.6,23.2,29.56,ESE,113,4.0,4.0,74,0.00,,,0.00,meteohub,2013-11-20 05:58:00,
2013-11-20 01:03:00,30.6,23.2,29.56,ESE,113,4.0,4.0,74,0.00,,,0.00,meteohub,2013-11-20 06:03:00,
2013-11-20 01:08:00,30.6,23.2,29.56,East,90,4.0,5.0,74,0.00,,,0.00,meteohub,2013-11-20 06:08:00,
2013-11-20 01:13:00,30.6,23.2,29.57,East,90,3.0,5.0,74,0.00,,,0.00,meteohub,2013-11-20 06:13:00,
2013-11-20 01:18:00,30.6,23.2,29.57,East,90,4.0,5.0,74,0.00,,,0.00,meteohub,2013-11-20 06:18:00,
2013-11-20 01:23:00,30.6,23.2,29.57,East,90,4.0,5.0,74,0.00,,,0.00,meteohub,2013-11-20 06:23:00,
2013-11-20 01:28:00,30.6,23.2,29.57,East,90,4.0,5.0,74,0.00,,,0.00,meteohub,2013-11-20 06:28:00,
2013-11-20 01:33:00,30.6,23.2,29.56,ESE,113,3.0,6.0,74,0.00,,,0.00,meteohub,2013-11-20 06:33:00,
2013-11-20 01:38:00,30.6,23.2,29.56,East,90,4.0,6.0,74,0.00,,,0.00,meteohub,2013-11-20 06:38:00,
2013-11-20 01:43:00,30.7,23.4,29.56,ESE,113,4.0,6.0,74,0.00,,,0.00,meteohub,2013-11-20 06:43:00,
2013-11-20 01:48:00,30.9,23.5,29.56,ESE,113,5.0,5.0,74,0.00,,,0.00,meteohub,2013-11-20 06:48:00,
2013-11-20 01:53:00,30.9,23.5,29.55,ESE,113,6.0,6.0,74,0.00,,,0.00,meteohub,2013-11-20 06:53:00,
2013-11-20 01:58:00,31.1,23.7,29.55,ESE,113,5.0,6.0,74,0.00,,,0.00,meteohub,2013-11-20 06:58:00,
2013-11-20 02:03:00,31.1,23.7,29.55,SE,135,5.0,6.0,74,0.00,,,0.00,meteohub,2013-11-20 07:03:00,
2013-11-20 02:08:00,31.3,23.9,29.55,East,90,5.0,6.0,74,0.00,,,0.00,meteohub,2013-11-20 07:08:00,
2013-11-20 02:13:00,31.3,23.9,29.56,SE,135,4.0,6.0,74,0.00,,,0.00,meteohub,2013-11-20 07:13:00,
2013-11-20 02:18:00,31.6,24.3,29.56,SSE,158,9.0,9.0,74,0.00,,,0.00,meteohub,2013-11-20 07:18:00,
2013-11-20 02:23:00,32.2,24.4,29.56,SE,135,3.0,9.0,73,0.00,,,0.00,meteohub,2013-11-20 07:23:00,
2013-11-20 02:28:00,32.2,24.4,29.56,SE,135,8.0,9.0,73,0.00,,,0.00,meteohub,2013-11-20 07:28:00,
2013-11-20 02:33:00,32.4,24.6,29.56,East,90,1.0,9.0,73,0.00,,,0.00,meteohub,2013-11-20 07:33:00,
2013-11-20 02:38:00,32.4,24.6,29.56,SSE,158,6.0,8.0,73,0.00,,,0.00,meteohub,2013-11-20 07:38:00,
2013-11-20 02:43:00,32.4,24.3,29.56,SSE,158,7.0,8.0,72,0.00,,,0.00,meteohub,2013-11-20 07:43:00,
2013-11-20 02:48:00,32.5,24.4,29.56,SSE,158,4.0,7.0,72,0.00,,,0.00,meteohub,2013-11-20 07:48:00,
2013-11-20 02:53:00,32.5,24.4,29.57,SSE,158,4.0,7.0,72,0.00,,,0.00,meteohub,2013-11-20 07:53:00,
2013-11-20 02:58:00,32.5,24.4,29.57,SSE,158,4.0,7.0,72,0.00,,,0.00,meteohub,2013-11-20 07:58:00,
2013-11-20 03:03:00,32.4,24.3,29.57,ESE,113,3.0,7.0,72,0.00,,,0.00,meteohub,2013-11-20 08:03:00,
2013-11-20 03:08:00,32.4,24.3,29.57,NE,45,3.0,7.0,72,0.00,,,0.00,meteohub,2013-11-20 08:08:00,
2013-11-20 03:13:00,32.4,24.3,29.57,ESE,113,4.0,8.0,72,0.00,,,0.00,meteohub,2013-11-20 08:13:00,
2013-11-20 03:18:00,32.4,24.3,29.57,East,90,3.0,8.0,72,0.00,,,0.00,meteohub,2013-11-20 08:18:00,
2013-11-20 03:23:00,32.4,24.3,29.57,SE,135,5.0,6.0,72,0.00,,,0.00,meteohub,2013-11-20 08:23:00,
2013-11-20 03:28:00,32.2,24.3,29.57,ENE,68,3.0,7.0,72,0.00,,,0.00,meteohub,2013-11-20 08:28:00,
2013-11-20 03:33:00,32.2,24.3,29.57,East,90,3.0,7.0,72,0.00,,,0.00,meteohub,2013-11-20 08:33:00,
2013-11-20 03:38:00,32.2,24.3,29.57,SE,135,2.0,7.0,72,0.00,,,0.00,meteohub,2013-11-20 08:38:00,
2013-11-20 03:43:00,32.2,24.3,29.57,East,90,8.0,8.0,72,0.00,,,0.00,meteohub,2013-11-20 08:43:00,
2013-11-20 03:48:00,32.2,24.3,29.57,SE,135,6.0,6.0,72,0.00,,,0.00,meteohub,2013-11-20 08:48:00,
2013-11-20 03:53:00,32.0,24.1,29.57,SE,135,4.0,8.0,72,0.00,,,0.00,meteohub,2013-11-20 08:53:00,
2013-11-20 03:58:00,31.8,23.9,29.57,SE,135,6.0,8.0,72,0.00,,,0.00,meteohub,2013-11-20 08:58:00,
2013-11-20 04:03:00,31.8,23.9,29.57,SE,135,7.0,7.0,72,0.00,,,0.00,meteohub,2013-11-20 09:03:00,
2013-11-20 04:08:00,31.8,23.9,29.57,ESE,113,3.0,6.0,72,0.00,,,0.00,meteohub,2013-11-20 09:08:00,
2013-11-20 04:14:00,31.6,23.7,29.57,ESE,113,6.0,8.0,72,0.00,,,0.00,meteohub,2013-11-20 09:14:00,
2013-11-20 04:19:00,31.6,23.7,29.57,SE,135,4.0,8.0,72,0.00,,,0.00,meteohub,2013-11-20 09:19:00,
2013-11-20 04:24:00,31.6,23.7,29.57,ESE,113,8.0,8.0,72,0.00,,,0.00,meteohub,2013-11-20 09:24:00,
2013-11-20 04:29:00,31.8,23.9,29.57,SE,135,5.0,6.0,72,0.00,,,0.00,meteohub,2013-11-20 09:29:00,
2013-11-20 04:34:00,31.8,23.9,29.57,SE,135,3.0,8.0,72,0.00,,,0.00,meteohub,2013-11-20 09:34:00,
2013-11-20 04:39:00,32.0,24.1,29.57,SSE,158,8.0,9.0,72,0.00,,,0.00,meteohub,2013-11-20 09:39:00,
2013-11-20 04:44:00,32.0,24.1,29.57,ESE,113,10.0,10.0,72,0.00,,,0.00,meteohub,2013-11-20 09:44:00,
2013-11-20 04:49:00,32.0,24.1,29.57,ESE,113,4.0,9.0,72,0.00,,,0.00,meteohub,2013-11-20 09:49:00,
2013-11-20 04:54:00,32.0,24.1,29.58,SSE,158,4.0,10.0,72,0.00,,,0.00,meteohub,2013-11-20 09:54:00,
2013-11-20 04:59:00,32.0,24.1,29.58,WNW,293,8.0,10.0,72,0.00,,,0.00,meteohub,2013-11-20 09:59:00,
2013-11-20 05:04:00,31.8,23.9,29.58,SE,135,6.0,6.0,72,0.00,,,0.00,meteohub,2013-11-20 10:04:00,
2013-11-20 05:09:00,31.6,23.7,29.58,WNW,293,5.0,8.0,72,0.00,,,0.00,meteohub,2013-11-20 10:09:00,
2013-11-20 05:14:00,31.6,23.7,29.57,ESE,113,4.0,8.0,72,0.00,,,0.00,meteohub,2013-11-20 10:14:00,
2013-11-20 05:19:00,31.6,23.7,29.57,SE,135,4.0,8.0,72,0.00,,,0.00,meteohub,2013-11-20 10:19:00,
2013-11-20 05:24:00,31.6,23.7,29.57,SSE,158,4.0,8.0,72,0.00,,,0.00,meteohub,2013-11-20 10:24:00,
2013-11-20 05:29:00,31.5,23.5,29.57,SE,135,5.0,9.0,72,0.00,,,0.00,meteohub,2013-11-20 10:29:00,
2013-11-20 05:34:00,31.6,23.7,29.56,SE,135,4.0,9.0,72,0.00,,,0.00,meteohub,2013-11-20 10:34:00,
2013-11-20 05:39:00,31.6,23.7,29.56,SSE,158,6.0,9.0,72,0.00,,,0.00,meteohub,2013-11-20 10:39:00,
2013-11-20 05:44:00,31.6,23.9,29.56,ESE,113,3.0,9.0,73,0.00,,,0.00,meteohub,2013-11-20 10:44:00,
2013-11-20 05:49:00,31.6,23.9,29.56,SE,135,4.0,8.0,73,0.00,,,0.00,meteohub,2013-11-20 10:49:00,
2013-11-20 05:54:00,31.6,23.9,29.56,SSW,203,7.0,9.0,73,0.00,,,0.00,meteohub,2013-11-20 10:54:00,
2013-11-20 05:59:00,31.6,23.9,29.56,SE,135,9.0,9.0,73,0.00,,,0.00,meteohub,2013-11-20 10:59:00,
2013-11-20 06:04:00,31.6,23.7,29.56,NW,315,7.0,9.0,72,0.00,,,0.00,meteohub,2013-11-20 11:04:00,
2013-11-20 06:09:00,31.6,23.7,29.56,SSE,158,6.0,9.0,72,0.00,,,0.00,meteohub,2013-11-20 11:09:00,
2013-11-20 06:14:00,31.8,23.9,29.56,SSW,203,9.0,9.0,72,0.00,,,0.00,meteohub,2013-11-20 11:14:00,
2013-11-20 06:19:00,32.0,24.1,29.56,SE,135,7.0,9.0,72,0.00,,,0.00,meteohub,2013-11-20 11:19:00,
2013-11-20 06:24:00,32.0,24.1,29.56,SSE,158,6.0,9.0,72,0.00,,,0.00,meteohub,2013-11-20 11:24:00,
2013-11-20 06:29:00,32.0,24.1,29.56,SE,135,4.0,9.0,72,0.00,,,0.00,meteohub,2013-11-20 11:29:00,
2013-11-20 06:34:00,32.0,24.1,29.56,East,90,4.0,7.0,72,0.00,,,0.00,meteohub,2013-11-20 11:34:00,
2013-11-20 06:39:00,31.8,23.9,29.56,ESE,113,2.0,6.0,72,0.00,,,0.00,meteohub,2013-11-20 11:39:00,
2013-11-20 06:44:00,31.8,23.9,29.56,ESE,113,3.0,8.0,72,0.00,,,0.00,meteohub,2013-11-20 11:44:00,
2013-11-20 06:49:00,31.8,23.9,29.56,South,180,4.0,8.0,72,0.00,,,0.00,meteohub,2013-11-20 11:49:00,
2013-11-20 06:54:00,31.8,23.9,29.56,SSE,158,4.0,8.0,72,0.00,,,0.00,meteohub,2013-11-20 11:54:00,
2013-11-20 06:59:00,31.6,23.7,29.56,ENE,68,3.0,6.0,72,0.00,,,0.00,meteohub,2013-11-20 11:59:00,
2013-11-20 07:04:00,31.6,23.7,29.56,ESE,113,5.0,6.0,72,0.00,,,0.00,meteohub,2013-11-20 12:04:00,
2013-11-20 07:09:00,31.8,24.1,29.56,SE,135,4.0,7.0,73,0.00,,,0.00,meteohub,2013-11-20 12:09:00,
2013-11-20 07:14:00,32.0,24.3,29.56,SW,225,4.0,7.0,73,0.00,,,0.00,meteohub,2013-11-20 12:14:00,
2013-11-20 07:19:00,32.0,24.3,29.56,ESE,113,4.0,7.0,73,0.00,,,0.00,meteohub,2013-11-20 12:19:00,
2013-11-20 07:24:00,32.0,24.3,29.56,SE,135,5.0,7.0,73,0.00,,,0.00,meteohub,2013-11-20 12:24:00,
2013-11-20 07:29:00,32.0,24.1,29.56,South,180,4.0,7.0,72,0.00,,,0.00,meteohub,2013-11-20 12:29:00,
2013-11-20 07:35:00,32.2,24.3,29.57,SE,135,6.0,7.0,72,0.00,,,0.00,meteohub,2013-11-20 12:35:00,
2013-11-20 07:40:00,32.2,24.3,29.57,SSE,158,5.0,6.0,72,0.00,,,0.00,meteohub,2013-11-20 12:40:00,
2013-11-20 07:45:00,32.2,24.3,29.57,ESE,113,7.0,7.0,72,0.00,,,0.00,meteohub,2013-11-20 12:45:00,
2013-11-20 07:50:00,32.2,24.3,29.57,East,90,6.0,6.0,72,0.00,,,0.00,meteohub,2013-11-20 12:50:00,
2013-11-20 07:55:00,32.2,24.3,29.56,ESE,113,5.0,7.0,72,0.00,,,0.00,meteohub,2013-11-20 12:55:00,
2013-11-20 08:00:00,32.2,24.3,29.56,SE,135,6.0,8.0,72,0.00,,,0.00,meteohub,2013-11-20 13:00:00,
2013-11-20 08:05:00,32.4,24.3,29.56,SE,135,3.0,8.0,72,0.00,,,0.00,meteohub,2013-11-20 13:05:00,
2013-11-20 08:10:00,32.4,24.3,29.56,ESE,113,8.0,8.0,72,0.00,,,0.00,meteohub,2013-11-20 13:10:00,
2013-11-20 08:15:00,32.2,24.3,29.57,SE,135,5.0,8.0,72,0.00,,,0.00,meteohub,2013-11-20 13:15:00,
2013-11-20 08:20:00,32.4,24.3,29.57,East,90,7.0,8.0,72,0.00,,,0.00,meteohub,2013-11-20 13:20:00,
2013-11-20 08:25:00,32.5,24.4,29.57,East,90,4.0,8.0,72,0.00,,,0.00,meteohub,2013-11-20 13:25:00,
2013-11-20 08:30:00,32.4,24.3,29.57,SE,135,8.0,9.0,72,0.00,,,0.00,meteohub,2013-11-20 13:30:00,
2013-11-20 08:35:00,32.5,24.4,29.56,ESE,113,3.0,9.0,72,0.00,,,0.00,meteohub,2013-11-20 13:35:00,
2013-11-20 08:40:00,32.7,25.0,29.56,ESE,113,4.0,8.0,73,0.00,,,0.00,meteohub,2013-11-20 13:40:00,
2013-11-20 08:45:00,32.7,25.0,29.56,SE,135,5.0,8.0,73,0.00,,,0.00,meteohub,2013-11-20 13:45:00,
2013-11-20 08:51:00,32.9,25.2,29.56,East,90,5.0,8.0,73,0.00,,,0.00,meteohub,2013-11-20 13:51:00,
2013-11-20 08:56:00,32.9,25.2,29.56,SSE,158,6.0,6.0,73,0.00,,,0.00,meteohub,2013-11-20 13:56:00,
2013-11-20 09:01:00,33.1,25.3,29.56,SE,135,3.0,6.0,73,0.00,,,0.00,meteohub,2013-11-20 14:01:00,
2013-11-20 09:06:00,33.3,25.2,29.56,SE,135,5.0,6.0,72,0.00,,,0.00,meteohub,2013-11-20 14:06:00,
2013-11-20 09:11:00,33.4,25.3,29.56,SSE,158,3.0,6.0,72,0.00,,,0.00,meteohub,2013-11-20 14:11:00,
2013-11-20 09:16:00,33.6,25.5,29.57,SE,135,5.0,11.0,72,0.00,,,0.00,meteohub,2013-11-20 14:16:00,
2013-11-20 09:21:00,34.2,26.1,29.57,ESE,113,6.0,11.0,72,0.00,,,0.00,meteohub,2013-11-20 14:21:00,
2013-11-20 09:26:00,34.3,25.9,29.57,ENE,68,5.0,11.0,71,0.00,,,0.00,meteohub,2013-11-20 14:26:00,
2013-11-20 09:31:00,34.3,25.9,29.57,SE,135,2.0,8.0,71,0.00,,,0.00,meteohub,2013-11-20 14:31:00,
2013-11-20 09:36:00,34.3,25.9,29.57,East,90,2.0,8.0,71,0.00,,,0.00,meteohub,2013-11-20 14:36:00,
2013-11-20 09:41:00,34.3,25.9,29.57,ESE,113,5.0,8.0,71,0.00,,,0.00,meteohub,2013-11-20 14:41:00,
2013-11-20 09:46:00,34.3,25.9,29.57,East,90,3.0,7.0,71,0.00,,,0.00,meteohub,2013-11-20 14:46:00,
2013-11-20 09:51:00,34.7,26.2,29.57,SE,135,6.0,7.0,71,0.00,,,0.00,meteohub,2013-11-20 14:51:00,
2013-11-20 09:56:00,34.9,26.1,29.57,SSE,158,8.0,8.0,70,0.00,,,0.00,meteohub,2013-11-20 14:56:00,
2013-11-20 10:01:00,35.1,26.2,29.57,ESE,113,13.0,13.0,70,0.00,,,0.00,meteohub,2013-11-20 15:01:00,
2013-11-20 10:06:00,35.1,25.9,29.57,SSE,158,6.0,13.0,69,0.00,,,0.00,meteohub,2013-11-20 15:06:00,
2013-11-20 10:11:00,35.2,26.1,29.57,SSW,203,4.0,13.0,69,0.00,,,0.00,meteohub,2013-11-20 15:11:00,
2013-11-20 10:16:00,35.4,25.9,29.57,SE,135,5.0,13.0,68,0.00,,,0.00,meteohub,2013-11-20 15:16:00,
2013-11-20 10:21:00,35.4,25.9,29.57,ESE,113,3.0,7.0,68,0.00,,,0.00,meteohub,2013-11-20 15:21:00,
2013-11-20 10:26:00,35.6,26.1,29.57,SE,135,4.0,8.0,68,0.00,,,0.00,meteohub,2013-11-20 15:26:00,
2013-11-20 10:31:00,35.8,26.2,29.57,ESE,113,5.0,8.0,68,0.00,,,0.00,meteohub,2013-11-20 15:31:00,
2013-11-20 10:36:00,35.8,26.2,29.56,ESE,113,3.0,8.0,68,0.00,,,0.00,meteohub,2013-11-20 15:36:00,
2013-11-20 10:41:00,35.8,25.9,29.56,SSE,158,4.0,8.0,67,0.00,,,0.00,meteohub,2013-11-20 15:41:00,
2013-11-20 10:46:00,36.3,26.1,29.56,SSW,203,4.0,8.0,66,0.00,,,0.00,meteohub,2013-11-20 15:46:00,
2013-11-20 10:51:00,36.3,26.1,29.56,SSE,158,5.0,9.0,66,0.00,,,0.00,meteohub,2013-11-20 15:51:00,
2013-11-20 10:56:00,36.5,26.2,29.56,SE,135,9.0,9.0,66,0.00,,,0.00,meteohub,2013-11-20 15:56:00,
2013-11-20 11:01:00,36.5,25.9,29.56,ESE,113,9.0,9.0,65,0.00,,,0.00,meteohub,2013-11-20 16:01:00,
2013-11-20 11:06:00,36.7,26.1,29.56,SE,135,4.0,9.0,65,0.00,,,0.00,meteohub,2013-11-20 16:06:00,
2013-11-20 11:12:00,37.0,26.8,29.55,East,90,6.0,9.0,66,0.00,,,0.00,meteohub,2013-11-20 16:12:00,
2013-11-20 11:17:00,37.2,27.0,29.55,SE,135,6.0,9.0,66,0.00,,,0.00,meteohub,2013-11-20 16:17:00,
2013-11-20 11:22:00,37.6,27.0,29.55,SE,135,4.0,8.0,65,0.00,,,0.00,meteohub,2013-11-20 16:22:00,
2013-11-20 11:27:00,37.9,27.1,29.55,SE,135,6.0,7.0,65,0.00,,,0.00,meteohub,2013-11-20 16:27:00,
2013-11-20 11:32:00,37.9,27.1,29.54,SW,225,8.0,8.0,65,0.00,,,0.00,meteohub,2013-11-20 16:32:00,
2013-11-20 11:37:00,38.3,27.9,29.54,NE,45,4.0,8.0,66,0.00,,,0.00,meteohub,2013-11-20 16:37:00,
2013-11-20 11:42:00,38.7,27.9,29.54,East,90,5.0,8.0,65,0.00,,,0.00,meteohub,2013-11-20 16:42:00,
2013-11-20 11:47:00,38.8,28.0,29.54,SSE,158,4.0,8.0,65,0.00,,,0.00,meteohub,2013-11-20 16:47:00,
2013-11-20 11:52:00,38.8,27.7,29.54,West,270,4.0,8.0,64,0.00,,,0.00,meteohub,2013-11-20 16:52:00,
2013-11-20 11:57:00,39.0,27.9,29.54,SE,135,11.0,11.0,64,0.00,,,0.00,meteohub,2013-11-20 16:57:00,
2013-11-20 12:02:00,39.2,28.0,29.54,ESE,113,9.0,11.0,64,0.00,,,0.00,meteohub,2013-11-20 17:02:00,
2013-11-20 12:07:00,39.4,27.9,29.54,ESE,113,9.0,11.0,63,0.00,,,0.00,meteohub,2013-11-20 17:07:00,
2013-11-20 12:12:00,39.6,27.7,29.54,SSW,203,7.0,11.0,62,0.00,,,0.00,meteohub,2013-11-20 17:12:00,
2013-11-20 12:17:00,39.7,27.9,29.54,SSE,158,8.0,9.0,62,0.00,,,0.00,meteohub,2013-11-20 17:17:00,
2013-11-20 12:22:00,39.7,27.9,29.54,ESE,113,6.0,11.0,62,0.00,,,0.00,meteohub,2013-11-20 17:22:00,
2013-11-20 12:27:00,40.1,28.0,29.54,SSE,158,4.0,11.0,62,0.00,,,0.00,meteohub,2013-11-20 17:27:00,
2013-11-20 12:32:00,40.1,27.7,29.52,ESE,113,7.0,11.0,61,0.00,,,0.00,meteohub,2013-11-20 17:32:00,
2013-11-20 12:37:00,40.1,28.0,29.52,SE,135,5.0,9.0,62,0.00,,,0.00,meteohub,2013-11-20 17:37:00,
2013-11-20 12:42:00,40.3,27.9,29.52,SSE,158,9.0,9.0,61,0.00,,,0.00,meteohub,2013-11-20 17:42:00,
2013-11-20 12:47:00,40.3,27.9,29.52,SSE,158,4.0,8.0,61,0.00,,,0.00,meteohub,2013-11-20 17:47:00,
2013-11-20 12:52:00,40.5,28.4,29.52,SSE,158,8.0,9.0,62,0.00,,,0.00,meteohub,2013-11-20 17:52:00,
2013-11-20 12:57:00,40.5,28.0,29.52,East,90,4.0,9.0,61,0.00,,,0.00,meteohub,2013-11-20 17:57:00,
2013-11-20 13:02:00,40.6,28.2,29.52,ESE,113,6.0,9.0,61,0.00,,,0.00,meteohub,2013-11-20 18:02:00,
2013-11-20 13:07:00,40.8,28.4,29.52,ESE,113,6.0,9.0,61,0.00,,,0.00,meteohub,2013-11-20 18:07:00,
2013-11-20 13:12:00,40.8,28.4,29.52,East,90,6.0,6.0,61,0.00,,,0.00,meteohub,2013-11-20 18:12:00,
2013-11-20 13:17:00,41.0,28.6,29.52,South,180,7.0,7.0,61,0.00,,,0.00,meteohub,2013-11-20 18:17:00,
2013-11-20 13:22:00,41.0,28.2,29.52,SE,135,7.0,8.0,60,0.00,,,0.00,meteohub,2013-11-20 18:22:00,
2013-11-20 13:27:00,41.2,27.9,29.52,SSE,158,8.0,8.0,59,0.00,,,0.00,meteohub,2013-11-20 18:27:00,
2013-11-20 13:32:00,41.2,27.5,29.50,SSE,158,10.0,10.0,58,0.00,,,0.00,meteohub,2013-11-20 18:32:00,
2013-11-20 13:37:00,41.2,27.5,29.50,SW,225,3.0,10.0,58,0.00,,,0.00,meteohub,2013-11-20 18:37:00,
2013-11-20 13:42:00,41.0,27.9,29.50,SE,135,6.0,10.0,59,0.00,,,0.00,meteohub,2013-11-20 18:42:00,
2013-11-20 13:47:00,41.0,27.9,29.50,ESE,113,3.0,10.0,59,0.00,,,0.00,meteohub,2013-11-20 18:47:00,
2013-11-20 13:52:00,41.2,27.9,29.50,SSE,158,3.0,9.0,59,0.00,,,0.00,meteohub,2013-11-20 18:52:00,
2013-11-20 13:57:00,41.5,27.9,29.50,ESE,113,5.0,9.0,58,0.00,,,0.00,meteohub,2013-11-20 18:57:00,
2013-11-20 14:02:00,41.5,27.9,29.50,SW,225,7.0,8.0,58,0.00,,,0.00,meteohub,2013-11-20 19:02:00,
2013-11-20 14:07:00,41.5,27.5,29.50,SSE,158,6.0,8.0,57,0.00,,,0.00,meteohub,2013-11-20 19:07:00,
2013-11-20 14:12:00,41.5,27.5,29.50,SE,135,5.0,9.0,57,0.00,,,0.00,meteohub,2013-11-20 19:12:00,
2013-11-20 14:17:00,41.7,27.7,29.50,ESE,113,7.0,9.0,57,0.00,,,0.00,meteohub,2013-11-20 19:17:00,
2013-11-20 14:22:00,41.5,27.0,29.50,NE,45,7.0,9.0,56,0.00,,,0.00,meteohub,2013-11-20 19:22:00,
2013-11-20 14:27:00,41.7,27.1,29.50,South,180,4.0,9.0,56,0.00,,,0.00,meteohub,2013-11-20 19:27:00,
2013-11-20 14:33:00,41.7,27.1,29.50,SE,135,4.0,9.0,56,0.00,,,0.00,meteohub,2013-11-20 19:33:00,
2013-11-20 14:38:00,41.9,27.3,29.50,SSE,158,8.0,8.0,56,0.00,,,0.00,meteohub,2013-11-20 19:38:00,
2013-11-20 14:43:00,41.9,27.3,29.50,ESE,113,2.0,8.0,56,0.00,,,0.00,meteohub,2013-11-20 19:43:00,
2013-11-20 14:48:00,42.1,27.1,29.50,SE,135,9.0,9.0,55,0.00,,,0.00,meteohub,2013-11-20 19:48:00,
2013-11-20 14:53:00,41.9,27.0,29.49,NE,45,7.0,9.0,55,0.00,,,0.00,meteohub,2013-11-20 19:53:00,
2013-11-20 14:58:00,42.3,27.3,29.49,ESE,113,3.0,9.0,55,0.00,,,0.00,meteohub,2013-11-20 19:58:00,
2013-11-20 15:03:00,42.6,27.1,29.49,SW,225,3.0,9.0,54,0.00,,,0.00,meteohub,2013-11-20 20:03:00,
2013-11-20 15:08:00,43.2,27.7,29.49,SSE,158,8.0,8.0,54,0.00,,,0.00,meteohub,2013-11-20 20:08:00,
2013-11-20 15:13:00,43.3,27.0,29.48,SE,135,6.0,7.0,52,0.00,,,0.00,meteohub,2013-11-20 20:13:00,
2013-11-20 15:18:00,43.3,27.0,29.48,SE,135,6.0,8.0,52,0.00,,,0.00,meteohub,2013-11-20 20:18:00,
2013-11-20 15:23:00,43.3,27.0,29.48,South,180,11.0,11.0,52,0.00,,,0.00,meteohub,2013-11-20 20:23:00,
2013-11-20 15:28:00,43.5,27.1,29.48,ESE,113,5.0,11.0,52,0.00,,,0.00,meteohub,2013-11-20 20:28:00,
2013-11-20 15:33:00,43.5,26.6,29.47,SSE,158,7.0,11.0,51,0.00,,,0.00,meteohub,2013-11-20 20:33:00,
2013-11-20 15:38:00,43.5,26.6,29.47,SSE,158,6.0,11.0,51,0.00,,,0.00,meteohub,2013-11-20 20:38:00,
2013-11-20 15:43:00,43.5,27.1,29.47,SSE,158,5.0,9.0,52,0.00,,,0.00,meteohub,2013-11-20 20:43:00,
2013-11-20 15:48:00,43.5,27.5,29.47,WNW,293,2.0,9.0,53,0.00,,,0.00,meteohub,2013-11-20 20:48:00,
2013-11-20 15:53:00,43.5,27.5,29.47,NE,45,3.0,9.0,53,0.00,,,0.00,meteohub,2013-11-20 20:53:00,
2013-11-20 15:58:00,43.3,27.0,29.47,ESE,113,4.0,7.0,52,0.00,,,0.00,meteohub,2013-11-20 20:58:00,
2013-11-20 16:03:00,43.0,26.6,29.47,ENE,68,3.0,6.0,52,0.00,,,0.00,meteohub,2013-11-20 21:03:00,
2013-11-20 16:08:00,43.0,26.6,29.47,SE,135,5.0,6.0,52,0.00,,,0.00,meteohub,2013-11-20 21:08:00,
2013-11-20 16:13:00,42.6,26.6,29.48,SSE,158,2.0,6.0,53,0.00,,,0.00,meteohub,2013-11-20 21:13:00,
2013-11-20 16:18:00,42.3,26.4,29.48,SE,135,3.0,6.0,53,0.00,,,0.00,meteohub,2013-11-20 21:18:00,
2013-11-20 16:23:00,42.3,26.4,29.48,ESE,113,4.0,5.0,53,0.00,,,0.00,meteohub,2013-11-20 21:23:00,
2013-11-20 16:28:00,42.3,26.4,29.48,ESE,113,1.0,4.0,53,0.00,,,0.00,meteohub,2013-11-20 21:28:00,
2013-11-20 16:33:00,42.1,26.2,29.47,ESE,113,4.0,5.0,53,0.00,,,0.00,meteohub,2013-11-20 21:33:00,
2013-11-20 16:38:00,41.7,25.9,29.47,ESE,113,2.0,5.0,53,0.00,,,0.00,meteohub,2013-11-20 21:38:00,
2013-11-20 16:43:00,41.5,25.7,29.47,East,90,3.0,4.0,53,0.00,,,0.00,meteohub,2013-11-20 21:43:00,
2013-11-20 16:48:00,41.4,25.9,29.47,East,90,2.0,4.0,54,0.00,,,0.00,meteohub,2013-11-20 21:48:00,
2013-11-20 16:53:00,41.2,25.9,29.47,East,90,2.0,3.0,54,0.00,,,0.00,meteohub,2013-11-20 21:53:00,
2013-11-20 16:58:00,41.0,25.7,29.47,East,90,3.0,3.0,54,0.00,,,0.00,meteohub,2013-11-20 21:58:00,
2013-11-20 17:03:00,40.8,25.9,29.47,ESE,113,3.0,4.0,55,0.00,,,0.00,meteohub,2013-11-20 22:03:00,
2013-11-20 17:08:00,40.6,25.7,29.47,East,90,3.0,4.0,55,0.00,,,0.00,meteohub,2013-11-20 22:08:00,
2013-11-20 17:13:00,40.6,25.7,29.48,SE,135,4.0,4.0,55,0.00,,,0.00,meteohub,2013-11-20 22:13:00,
2013-11-20 17:18:00,40.5,25.5,29.48,East,90,2.0,4.0,55,0.00,,,0.00,meteohub,2013-11-20 22:18:00,
2013-11-20 17:23:00,40.3,25.3,29.48,East,90,2.0,4.0,55,0.00,,,0.00,meteohub,2013-11-20 22:23:00,
2013-11-20 17:28:00,39.9,25.5,29.48,NE,45,2.0,4.0,56,0.00,,,0.00,meteohub,2013-11-20 22:28:00,
2013-11-20 17:33:00,39.7,25.3,29.47,East,90,2.0,4.0,56,0.00,,,0.00,meteohub,2013-11-20 22:33:00,
2013-11-20 17:38:00,39.6,25.2,29.47,East,90,3.0,3.0,56,0.00,,,0.00,meteohub,2013-11-20 22:38:00,
2013-11-20 17:43:00,39.2,25.2,29.47,NE,45,4.0,4.0,57,0.00,,,0.00,meteohub,2013-11-20 22:43:00,
2013-11-20 17:48:00,39.0,25.2,29.47,East,90,4.0,5.0,57,0.00,,,0.00,meteohub,2013-11-20 22:48:00,
2013-11-20 17:54:00,39.0,25.5,29.47,East,90,4.0,6.0,58,0.00,,,0.00,meteohub,2013-11-20 22:54:00,
2013-11-20 17:59:00,38.8,25.3,29.47,East,90,2.0,6.0,58,0.00,,,0.00,meteohub,2013-11-20 22:59:00,
2013-11-20 18:04:00,38.7,25.5,29.47,East,90,3.0,6.0,59,0.00,,,0.00,meteohub,2013-11-20 23:04:00,
2013-11-20 18:09:00,38.7,25.5,29.47,East,90,4.0,6.0,59,0.00,,,0.00,meteohub,2013-11-20 23:09:00,
2013-11-20 18:14:00,38.3,25.2,29.47,East,90,3.0,4.0,59,0.00,,,0.00,meteohub,2013-11-20 23:14:00,
2013-11-20 18:19:00,38.3,25.2,29.47,NE,45,3.0,4.0,59,0.00,,,0.00,meteohub,2013-11-20 23:19:00,
2013-11-20 18:24:00,38.3,25.7,29.47,East,90,2.0,4.0,60,0.00,,,0.00,meteohub,2013-11-20 23:24:00,
2013-11-20 18:29:00,38.1,25.5,29.47,SE,135,2.0,5.0,60,0.00,,,0.00,meteohub,2013-11-20 23:29:00,
2013-11-20 18:34:00,38.1,25.5,29.47,East,90,2.0,5.0,60,0.00,,,0.00,meteohub,2013-11-20 23:34:00,
2013-11-20 18:39:00,37.9,25.7,29.47,East,90,3.0,5.0,61,0.00,,,0.00,meteohub,2013-11-20 23:39:00,
2013-11-20 18:44:00,37.9,25.7,29.47,ESE,113,3.0,3.0,61,0.00,,,0.00,meteohub,2013-11-20 23:44:00,
2013-11-20 18:49:00,37.9,25.7,29.47,SE,135,2.0,3.0,61,0.00,,,0.00,meteohub,2013-11-20 23:49:00,
2013-11-20 18:54:00,37.8,25.9,29.47,ENE,68,1.0,3.0,62,0.00,,,0.00,meteohub,2013-11-20 23:54:00,
2013-11-20 18:59:00,37.8,26.2,29.47,SE,135,3.0,3.0,63,0.00,,,0.00,meteohub,2013-11-20 23:59:00,
2013-11-20 19:04:00,37.8,26.2,29.47,ENE,68,2.0,3.0,63,0.00,,,0.00,meteohub,2013-11-21 00:04:00,
2013-11-20 19:09:00,37.6,26.1,29.47,East,90,2.0,3.0,63,0.00,,,0.00,meteohub,2013-11-21 00:09:00,
2013-11-20 19:14:00,37.6,26.1,29.47,NE,45,1.0,3.0,63,0.00,,,0.00,meteohub,2013-11-21 00:14:00,
2013-11-20 19:19:00,37.6,26.6,29.47,ESE,113,2.0,3.0,64,0.00,,,0.00,meteohub,2013-11-21 00:19:00,
2013-11-20 19:24:00,37.6,27.0,29.47,SE,135,4.0,4.0,65,0.00,,,0.00,meteohub,2013-11-21 00:24:00,
2013-11-20 19:29:00,37.6,27.0,29.47,East,90,2.0,4.0,65,0.00,,,0.00,meteohub,2013-11-21 00:29:00,
2013-11-20 19:34:00,37.6,27.0,29.46,ESE,113,4.0,4.0,65,0.00,,,0.00,meteohub,2013-11-21 00:34:00,
2013-11-20 19:39:00,37.6,27.3,29.46,ESE,113,4.0,6.0,66,0.00,,,0.00,meteohub,2013-11-21 00:39:00,
2013-11-20 19:44:00,37.6,27.3,29.46,NE,45,5.0,6.0,66,0.00,,,0.00,meteohub,2013-11-21 00:44:00,
2013-11-20 19:49:00,37.6,27.3,29.46,East,90,2.0,6.0,66,0.00,,,0.00,meteohub,2013-11-21 00:49:00,
2013-11-20 19:54:00,37.6,27.3,29.46,NNE,23,3.0,5.0,66,0.00,,,0.00,meteohub,2013-11-21 00:54:00,
2013-11-20 19:59:00,37.6,27.3,29.46,ENE,68,6.0,6.0,66,0.00,,,0.00,meteohub,2013-11-21 00:59:00,
2013-11-20 20:04:00,37.4,27.1,29.46,ESE,113,2.0,6.0,66,0.00,,,0.00,meteohub,2013-11-21 01:04:00,
2013-11-20 20:09:00,37.2,27.0,29.46,ESE,113,4.0,6.0,66,0.00,,,0.00,meteohub,2013-11-21 01:09:00,
2013-11-20 20:14:00,37.2,27.3,29.46,ESE,113,4.0,6.0,67,0.00,,,0.00,meteohub,2013-11-21 01:14:00,
2013-11-20 20:19:00,37.2,27.3,29.46,East,90,4.0,6.0,67,0.00,,,0.00,meteohub,2013-11-21 01:19:00,
2013-11-20 20:24:00,37.0,27.5,29.46,ESE,113,4.0,6.0,68,0.00,,,0.00,meteohub,2013-11-21 01:24:00,
2013-11-20 20:30:00,36.9,27.3,29.46,SE,135,3.0,6.0,68,0.00,,,0.00,meteohub,2013-11-21 01:30:00,
2013-11-20 20:35:00,36.9,27.3,29.46,ESE,113,5.0,5.0,68,0.00,,,0.00,meteohub,2013-11-21 01:35:00,
2013-11-20 20:40:00,36.7,27.1,29.46,SE,135,4.0,4.0,68,0.00,,,0.00,meteohub,2013-11-21 01:40:00,
2013-11-20 20:45:00,36.7,27.1,29.46,SE,135,3.0,5.0,68,0.00,,,0.00,meteohub,2013-11-21 01:45:00,
2013-11-20 20:50:00,36.5,27.3,29.46,ESE,113,3.0,5.0,69,0.00,,,0.00,meteohub,2013-11-21 01:50:00,
2013-11-20 20:55:00,36.5,27.3,29.46,East,90,2.0,5.0,69,0.00,,,0.00,meteohub,2013-11-21 01:55:00,
2013-11-20 21:00:00,36.5,27.3,29.46,East,90,4.0,5.0,69,0.00,,,0.00,meteohub,2013-11-21 02:00:00,
2013-11-20 21:05:00,36.5,27.7,29.46,East,90,3.0,5.0,70,0.00,,,0.00,meteohub,2013-11-21 02:05:00,
2013-11-20 21:10:00,36.5,27.7,29.46,ESE,113,3.0,5.0,70,0.00,,,0.00,meteohub,2013-11-21 02:10:00,
2013-11-20 21:15:00,36.5,27.7,29.45,ESE,113,3.0,4.0,70,0.00,,,0.00,meteohub,2013-11-21 02:15:00,
2013-11-20 21:20:00,36.5,27.7,29.45,East,90,2.0,4.0,70,0.00,,,0.00,meteohub,2013-11-21 02:20:00,
2013-11-20 21:25:00,36.5,28.0,29.45,ESE,113,2.0,4.0,71,0.00,,,0.00,meteohub,2013-11-21 02:25:00,
2013-11-20 21:30:00,36.5,28.0,29.45,ESE,113,2.0,4.0,71,0.00,,,0.00,meteohub,2013-11-21 02:30:00,
2013-11-20 21:35:00,36.7,28.6,29.45,SE,135,4.0,4.0,72,0.00,,,0.00,meteohub,2013-11-21 02:35:00,
2013-11-20 21:40:00,36.9,28.8,29.45,SSE,158,5.0,5.0,72,0.00,,,0.00,meteohub,2013-11-21 02:40:00,
2013-11-20 21:45:00,37.0,28.9,29.45,ESE,113,3.0,4.0,72,0.00,,,0.00,meteohub,2013-11-21 02:45:00,
2013-11-20 21:50:00,37.2,29.1,29.45,ESE,113,6.0,6.0,72,0.00,,,0.00,meteohub,2013-11-21 02:50:00,
2013-11-20 21:55:00,37.2,29.1,29.44,SE,135,4.0,5.0,72,0.00,,,0.00,meteohub,2013-11-21 02:55:00,
2013-11-20 22:00:00,37.4,29.1,29.44,East,90,3.0,6.0,72,0.00,,,0.00,meteohub,2013-11-21 03:00:00,
2013-11-20 22:05:00,37.6,29.1,29.44,East,90,6.0,6.0,71,0.00,,,0.00,meteohub,2013-11-21 03:05:00,
2013-11-20 22:10:00,37.6,29.1,29.44,East,90,7.0,7.0,71,0.00,,,0.00,meteohub,2013-11-21 03:10:00,
2013-11-20 22:15:00,37.6,29.1,29.44,North,0,3.0,7.0,71,0.00,,,0.00,meteohub,2013-11-21 03:15:00,
2013-11-20 22:20:00,37.8,29.1,29.44,NNE,23,4.0,7.0,71,0.00,,,0.00,meteohub,2013-11-21 03:20:00,
2013-11-20 22:25:00,37.8,29.1,29.44,East,90,5.0,6.0,71,0.00,,,0.00,meteohub,2013-11-21 03:25:00,
2013-11-20 22:30:00,37.8,29.1,29.44,ESE,113,4.0,6.0,71,0.00,,,0.00,meteohub,2013-11-21 03:30:00,
2013-11-20 22:35:00,37.9,29.3,29.43,West,270,4.0,6.0,71,0.00,,,0.00,meteohub,2013-11-21 03:35:00,
2013-11-20 22:40:00,37.8,29.1,29.43,ESE,113,5.0,5.0,71,0.00,,,0.00,meteohub,2013-11-21 03:40:00,
2013-11-20 22:45:00,37.9,29.1,29.43,ESE,113,5.0,7.0,70,0.00,,,0.00,meteohub,2013-11-21 03:45:00,
2013-11-20 22:50:00,37.9,29.1,29.43,ESE,113,8.0,8.0,70,0.00,,,0.00,meteohub,2013-11-21 03:50:00,
2013-11-20 22:55:00,37.9,29.1,29.43,ESE,113,8.0,8.0,70,0.00,,,0.00,meteohub,2013-11-21 03:55:00,
2013-11-20 23:00:00,37.9,29.1,29.43,ESE,113,4.0,8.0,70,0.00,,,0.00,meteohub,2013-11-21 04:00:00,
2013-11-20 23:05:00,37.9,29.1,29.43,SE,135,3.0,8.0,70,0.00,,,0.00,meteohub,2013-11-21 04:05:00,
2013-11-20 23:10:00,37.9,29.1,29.43,ENE,68,4.0,8.0,70,0.00,,,0.00,meteohub,2013-11-21 04:10:00,
2013-11-20 23:15:00,38.1,28.9,29.43,East,90,6.0,6.0,69,0.00,,,0.00,meteohub,2013-11-21 04:15:00,
2013-11-20 23:20:00,38.1,28.9,29.43,SE,135,4.0,7.0,69,0.00,,,0.00,meteohub,2013-11-21 04:20:00,
2013-11-20 23:25:00,38.3,28.9,29.43,East,90,4.0,7.0,69,0.00,,,0.00,meteohub,2013-11-21 04:25:00,
2013-11-20 23:30:00,38.3,28.9,29.43,ESE,113,4.0,7.0,69,0.00,,,0.00,meteohub,2013-11-21 04:30:00,
2013-11-20 23:35:00,38.3,28.9,29.45,ESE,113,4.0,7.0,69,0.00,,,0.00,meteohub,2013-11-21 04:35:00,
2013-11-20 23:40:00,38.3,28.9,29.45,SE,135,3.0,5.0,69,0.00,,,0.00,meteohub,2013-11-21 04:40:00,
2013-11-20 23:45:00,38.3,28.9,29.45,ESE,113,2.0,5.0,69,0.00,,,0.00,meteohub,2013-11-21 04:45:00,
2013-11-20 23:50:00,38.3,28.9,29.45,ESE,113,4.0,4.0,69,0.00,,,0.00,meteohub,2013-11-21 04:50:00,
2013-11-20 23:55:00,38.3,28.9,29.45,South,180,5.0,5.0,69,0.00,,,0.00,meteohub,2013-11-21 04:55:00,